Weather in Bestyakh

Russia / Sakha (Yakutia) Republic     65°17′01″N   124°07′40″E
temp.,
°C
wind,
m/s
gust,
m/s
humid.,
%
clouds,
%
prec.,
mm/h
press.,
hPa
HPBL,
m
17 april, sat
sat1700:00−1sse132096100 1.9 9791043
03:00−2sw81479100 5.9 980655
06:00−6sw6138783 0.0 982344
09:00−6sw71283100 0.0 984772
12:00−5sw71176100 0.1 9851422
15:00−4sw71276100 0.3 9861604
18:00−6sw61185100 0.4 9871224
21:00−8ssw61293100 0.8 989772
18 april, sun
sun1800:00−9ssw71293100 0.8 990764
03:00−9wsw71192100 1.8 991533
06:00−12wsw6109099 0.2 997320
09:00−11wsw5788100 0.2 1002378
12:00−8wsw4681100 0.2 1005911
15:00−7w4580100 0.4 1009908
18:00−7w3580100 0.1 1012492
21:00−12wsw229399 0.1 101614
19 april, mon
mon1900:00−15sw2295100 0.0 101714
03:00−15sw1196100 0.0 101910
06:00−16sw1197100 0.0 102112
09:00−11sw1290100 0.1 1022210
12:00−7wsw1278100 0.0 1022616
15:00−6wnw1272100 0.1 1022768
18:00−6wnw127497 0.1 1022439
21:00−15w119215 0.1 10229
20 april, tue
tue2000:00−19nw2110019 0.0 10239
03:00−21nnw2210091 0.0 102210
06:00−22nnw2210088 0.0 102217
09:00−12n359449 0.0 1021203
12:00−8n578535 0.0 1020499
15:00−7n57797 0.0 1020653
18:00−7n48825 0.0 1020425
21:00−12nnw479112 0.0 102175
21 april, wed
wed2100:00−14nnw489324 0.0 102296
03:00−16nnw499423 0.0 1023106
06:00−17nnw510948 0.0 1023144
09:00−11n612846 0.0 1023307
12:00−7n710786 0.0 1024525
15:00−6n69766 0.0 1024617
18:00−7n6108150 0.0 1024462
21:00−11nnw510906 0.0 1025160